Regional Weather Roundup
Issued by NWS Nashville, TN

Current Version | Previous Version | Text Only | Print | Product List | Glossary Off
Versions: 1 2 3 4 5 6 7 8 9 10 11 12 13 14 15 16 17 18 19 20 21 22 23 24 25 26 27 28 29 30 31 32 33 34 35 36 37 38 39 40 41 42 43 44 45 46 47 48 49 50

000
ASUS44 KOHX 280815
RWROHX
MIDDLE TENNESSEE HOURLY WEATHER ROUNDUP
NATIONAL WEATHER SERVICE NASHVILLE TN
200 AM CST FRI NOV 28 2014

NOTE: "FAIR" INDICATES FEW OR NO CLOUDS BELOW 12,000 FEET WITH
NO SIGNIFICANT WEATHER AND/OR OBSTRUCTIONS TO VISIBILITY.

* THESE REPORTS ARE NOT UNDER NWS QUALITY CONTROL AND MAY NOT
  REPORT WEATHER SUCH AS PRECIPITATION AND FOG.


TNZ005>011-023>034-057-059-062>066-078-080-280900
...NORTHERN MIDDLE TENNESSEE...

CITY           SKY/WX    TMP DP  RH WIND       PRES   REMARKS
CLARKSVILLE    PTCLDY    27  24  89 CALM      30.45R
CROSSVILLE     CLOUDY    25  15  66 N6        30.36S WCI  18
GALLATIN         N/A     20  18  92 CALM      30.44F
DICKSON        PTCLDY    21  19  93 CALM      30.42S
LEBANON        CLEAR     21  17  84 CALM      30.43S
NASHVILLE      CLEAR     24  20  84 CALM      30.45S
WEST NASHVILLE   N/A     25  23  93 CALM      30.46S
PORTLAND         N/A     18  18 100 CALM      30.42S
SPARTA         MOCLDY    28  21  74 CALM      30.40S
$$
TNZ056-058-060-061-075>077-079-093>097-280900
...SOUTHERN MIDDLE TENNESSEE...

CITY           SKY/WX    TMP DP  RH WIND       PRES   REMARKS
COLUMBIA       CLEAR     21  21 100 CALM      30.42F
LEWISBURG      CLEAR     21  17  84 CALM      30.44S
MCMINNVILLE    CLEAR     21  18  86 CALM      30.41F
MURFREESBORO   CLEAR     25  21  84 CALM      30.44S
SHELBYVILLE    CLEAR     21  21 100 CALM      30.45S
TULLAHOMA      CLEAR     19  16  86 CALM      30.42R
WINCHESTER     CLEAR     21  18  86 CALM      30.43R
$$


...KEY TO REMARKS...
VSB - VISIBILITY IN MILES
WCI - WIND CHILL INDEX
HX  - HEAT INDEX




USA.gov is the U.S. government's official web portal to all federal, state and local government web resources and services.